Regional Weather Roundup
Issued by NWS

Home | Current Version | Previous Version | Text Only | Print | Product List | Glossary Off
Versions: 1 2 3 4 5 6 7 8 9 10 11 12 13 14 15 16 17 18 19 20 21 22 23 24 25 26 27 28 29 30 31 32 33 34 35 36 37 38 39 40 41 42 43 44 45 46 47 48 49 50

000
ASUS45 KPSR 192310
RWRAZ

ARIZONA REGIONAL HOURLY WEATHER ROUNDUP
NATIONAL WEATHER SERVICE PHOENIX AZ
400 PM MST TUE AUG 19 2014

NOTE: FAIR INDICATES FEW OR NO CLOUDS BELOW 12,000 FEET WITH NO
SIGNIFICANT WEATHER AND/OR OBSTRUCTIONS TO VISIBILITY.

AZZ001>003-036-200000-
NORTHWEST ARIZONA

CITY           SKY/WX    TMP DP  RH WIND       PRES   REMARKS
BULLHEAD CITY  CLOUDY    75  64  69 SE3       29.77F
KINGMAN        LGT RAIN  67  59  75 E15       29.95F
$$

AZZ004>008-015-016-018-200000-
NORTH CENTRAL ARIZONA

CITY           SKY/WX    TMP DP  RH WIND       PRES   REMARKS
GRAND CANYON   PTSUNNY   66  54  65 SW6       30.10F
WILLIAMS       PTSUNNY   66  52  59 CALM      30.17F
PRESCOTT       PTSUNNY   64  55  72 S8        30.03F
FLAGSTAFF      CLOUDY    60  54  80 W5        30.12F
PAYSON         PTSUNNY   68  63  83 S6        30.08F
PAGE           CLOUDY    71  61  70 N8        29.94F
$$

AZZ009>014-017-200000-
NORTHEAST ARIZONA

CITY           SKY/WX    TMP DP  RH WIND       PRES   REMARKS
WINSLOW        CLOUDY    73  59  61 SW12      30.01F
SAINT JOHNS    CLOUDY    69  54  58 SW21G28   30.06F
WINDOW ROCK    CLOUDY    72  50  45 SW12G17   30.09F
SHOW LOW       LGT RAIN  57  54  88 S16       30.16S
$$

AZZ023-200000-
GREATER PHOENIX AREA

CITY           SKY/WX    TMP DP  RH WIND       PRES   REMARKS
PHOENIX        MOSUNNY   87  66  49 E21       29.78F
BUCKEYE          N/A     91  66  43 E16       29.74F
GLENDALE       MOSUNNY   90  66  45 NE9       29.79F
LUKE AFB       NOT AVBL
DEER VALLEY    SUNNY     87  66  49 NE6       29.80F
SCOTTSDALE     SUNNY     88  65  46 SE6       29.82F
MESA-FALCON    PTSUNNY   86  59  39 N17       29.80F
MESA-GATEWAY   PTSUNNY   84  61  45 NE7       29.83F
CHANDLER       PTSUNNY   86  68  54 NE12      29.80F
$$

AZZ027-028-200000-
SOUTHWEST MARICOPA COUNTY AND PINAL COUNTY

CITY           SKY/WX    TMP DP  RH WIND       PRES   REMARKS
CASA GRANDE    MOSUNNY   91  57  31 CALM      29.80F
GILA BEND      PTCLDY    97  57  26 SW9G15    29.74F
$$

AZZ503-504-507>509-200000-
SOUTHEAST ARIZONA

CITY           SKY/WX    TMP DP  RH WIND       PRES   REMARKS
TUCSON         PTSUNNY   84  66  54 NE9       29.89F
DAVIS-MONTHAN  MOSUNNY   83  64  53 E7        29.88F
RYAN FIELD       N/A     91  55  29 W12       29.87F
NOGALES        CLOUDY    82  62  50 W9        29.98F
SIERRA VISTA   PTSUNNY   82  59  44 W14G22    30.02F
DOUGLAS        PTSUNNY   73  62  68 CALM      30.02F
SAFFORD        RAIN      68  64  87 W7        29.97F FOG
$$

AZZ020-021-025-026-031-200000-
SOUTHWEST ARIZONA

CITY           SKY/WX    TMP DP  RH WIND       PRES   REMARKS
YUMA           MOSUNNY  104  51  17 S12G21    29.67F HX 101
$$

CAZ031-033-041-043-047-048-061-200000-
SOUTHERN CALIFORNIA

CITY           SKY/WX    TMP DP  RH WIND       PRES   REMARKS
DOWNTOWN L.A.  SUNNY     77  62  59 VRB3      29.84F
L.A. AIRPORT   MOSUNNY   72  62  71 W13       29.86F
SAN DIEGO      PTSUNNY   73  60  63 SW9       29.88F
BURBANK        MOSUNNY   78  60  53 S13       29.83F
ONTARIO        PTSUNNY   84  58  40 W14       29.83F
RIVERSIDE      MOSUNNY   82  59  45 W10G22    29.82F
PALM SPRINGS   SUNNY    102  38  11 NW20G26   29.68F
EL CENTRO NAS  MOSUNNY  108  40  10 SW21G30   29.63F HX 102
IMPERIAL       SUNNY    107  43  11 W18       29.62F HX 102
BLYTHE         SUNNY    105  39  10 SW20G29   29.65F
NEEDLES        MOSUNNY   89  58  34 NE12      29.74F
$$

NVZ020-UTZ003-200000-
SOUTHERN NEVADA-UTAH

CITY           SKY/WX    TMP DP  RH WIND       PRES   REMARKS
LAS VEGAS      MOSUNNY   90  61  37 SE15G23   29.74F
SALT LAKE CITY CLOUDY    72  55  55 SE10      29.90F
$$

NMZ009-TXZ055-200000-
NEW MEXICO-WEST TEXAS

CITY           SKY/WX    TMP DP  RH WIND       PRES   REMARKS
ALBUQUERQUE    PTSUNNY   86  43  22 SW15      29.95F
EL PASO        PTSUNNY   87  56  34 SW15G25   29.89S
$$


........................KEY........................
SKY/WX - SKY CONDITION/WEATHER
TMP    - TEMPERATURE IN FAHRENHEIT
DP     - DEW POINT IN FAHRENHEIT
RH     - RELATIVE HUMIDITY IN PERCENT
WIND   - DIRECTION AND SPEED IN MILES PER HOUR (MPH)
VRB    - VARIABLE WIND DIRECTION
PRES   - MEAN SEA LEVEL PRESSURE IN INCHES OF MERCURY
         F - FALLING PRESSURE   R - RISING PRESSURE
         S - STEADY PRESSURE
VSB    - VISIBILITY IN MILES
HX     - HEAT INDEX IN FAHRENHEIT
WCI    - WIND CHILL INDEX IN FAHRENHEIT
TC     - TEMPERATURE IN CELSIUS WHICH IS ALSO KNOWN AS
         TEMPERATURE IN CENTIGRADE
AFB    - AIR FORCE BASE
         LUKE AFB IS LUKE AIR FORCE BASE
         DAVIS-MONTHAN IS DAVIS-MONTHAN AIR FORCE BASE
NAS    - NAVAL AIR STATION
         EL CENTRO NAS IS EL CENTRO NAVAL AIR STATION
N/A    - NOT AVAILABLE


USA.gov is the U.S. government's official web portal to all federal, state and local government web resources and services.